Sharm El Sheikhintl, Egypt

8:34 AM EET on August 25, 2016 (GMT +0200)
Sharm El Sheikh International

Weather History for HESH - November, 2012

Change the Weather History Date:

Wednesday, November 7, 2012

  Actual Average Record
Temperature  
Mean Temperature 84 °F -  
Max Temperature 91 °F - - ()
Min Temperature 77 °F - - ()
Cooling Degree Days 19    
Growing Degree Days 34 (Base 50)    
Moisture  
Dew Point 60 °F    
Average Humidity 46    
Maximum Humidity 61    
Minimum Humidity 31    
Precipitation  
Precipitation 0.00 in - - ()
Sea Level Pressure  
Sea Level Pressure 29.89 in    
Wind  
Wind Speed 9 mph ()    
Max Wind Speed 20 mph    
Max Gust Speed -    
Visibility 6.2 miles    
Events      
T = Trace of Precipitation, MM = Missing Value Source: Averaged Metar Reports

Daily Weather History Graph

Daily Weather History Graph

Search for Another Location

Airport or City:

Trip Planner

Search our weather history database for the weather conditions in past years. The results will help you decide how hot, cold, wet, or windy it might be!

Date:

Astronomy

Nov. 07, 2012 Rise Set
Actual Time 5:58 AM EET 4:53 PM EET
Civil Twilight 5:33 AM EET 5:18 PM EET
Nautical Twilight 5:05 AM EET 5:46 PM EET
Astronomical Twilight 4:37 AM EET 6:13 PM EET
Moon No Moon Rise 12:18 PM EET (11/7)
Length of Visible Light 11h 44m
Length of Day
10h 55m
Last Quarter, 46% of the Moon is Illuminated
Nov 7
Last Quarter
Nov 14
New
Nov 20
First Quarter
Nov 28
Full
Dec 6
Last Quarter

Hourly Weather History & Observations

Time (EET) Temp. Heat Index Dew Point Humidity Pressure Visibility Wind Dir Wind Speed Gust Speed Precip Events Conditions
12:00 AM 82.4 °F 81.7 °F 55.4 °F 39% 29.92 in 6.2 mi Variable 1.2 mph - N/A   Mostly Cloudy
1:00 AM 80.6 °F - 51.8 °F 37% 29.89 in 6.2 mi NNE 3.5 mph - N/A   Scattered Clouds
2:00 AM 80.6 °F 81.5 °F 60.8 °F 51% 29.89 in 6.2 mi North 8.1 mph - N/A   Scattered Clouds
3:00 AM 78.8 °F - 60.8 °F 54% 29.89 in 6.2 mi North 11.5 mph - N/A   Scattered Clouds
4:00 AM 78.8 °F - 60.8 °F 54% 29.89 in - North 12.7 mph - N/A   Clear
5:00 AM 78.8 °F - 60.8 °F 54% 29.89 in - North 13.8 mph - N/A   Clear
6:00 AM 77.0 °F - 62.6 °F 61% 29.89 in - North 11.5 mph - N/A   Clear
7:00 AM 78.8 °F - 64.4 °F 61% 29.92 in 6.2 mi North 12.7 mph - N/A   Partly Cloudy
8:00 AM 82.4 °F 83.9 °F 64.4 °F 54% 29.95 in - North 19.6 mph - N/A   Clear
9:00 AM 84.2 °F 85.0 °F 62.6 °F 48% 29.95 in - NNE 19.6 mph - N/A   Clear
10:00 AM 86.0 °F 86.6 °F 62.6 °F 45% 29.92 in - NNE 18.4 mph - N/A   Clear
11:00 AM 87.8 °F 88.5 °F 62.6 °F 43% 29.92 in - NNE 16.1 mph - N/A   Clear
12:00 PM 89.6 °F 89.5 °F 60.8 °F 38% 29.89 in - NNE 12.7 mph - N/A   Clear
1:00 PM 91.4 °F 90.7 °F 59.0 °F 34% 29.86 in - NNE 11.5 mph - N/A   Clear
2:00 PM 91.4 °F 89.9 °F 57.2 °F 31% 29.86 in 6.2 mi North 13.8 mph - N/A   Partly Cloudy
3:00 PM 89.6 °F 88.9 °F 59.0 °F 36% 29.86 in 6.2 mi North 13.8 mph - N/A   Partly Cloudy
4:00 PM 87.8 °F 86.1 °F 55.4 °F 33% 29.86 in 6.2 mi North 12.7 mph - N/A   Partly Cloudy
5:00 PM 84.2 °F 82.8 °F 53.6 °F 35% 29.86 in 6.2 mi North 9.2 mph - N/A   Partly Cloudy
7:00 PM 80.6 °F 80.5 °F 55.4 °F 42% 29.89 in 6.2 mi North 5.8 mph - N/A   Partly Cloudy
8:00 PM 78.8 °F - 60.8 °F 54% 29.89 in - North 5.8 mph - N/A   Clear
9:00 PM 78.8 °F - 60.8 °F 54% 29.89 in - North 5.8 mph - N/A   Clear
10:00 PM 78.8 °F - 57.2 °F 47% 29.86 in - North 10.4 mph - N/A   Clear
11:00 PM 78.8 °F - 60.8 °F 54% 29.86 in - North 10.4 mph - N/A   Clear